EJU34XV LPFR-EGCC

Flight info

Callsign EJU34XV
Flight time N/A
Altitude 36000
Route ELVAR DCT BABOV DCT BARDI DCT ZMR DCT NUBLO DCT RONSI DCT DELOG DCT NOZHU/N0449F370 DCT SHIRI DCT TOJAQ DCT EPACE DCT ACCOP DCT MOCQO/N0438F360 P16 AXCIS
Aircraft A320/M-SDE2E3FGHIJ1RWXYZ/LB1

Departure

Time 2026-04-28 16:08
Airport Faro - Gago Coutinho International Airport (LPFR)

Arrival

Time N/A
Airport Manchester Airport (EGCC)
Time Latitude Longitude Altitude Speed Heading
2026-04-28 15:43 37.01733 -7.96779 22 ft 0 kts 189°
2026-04-28 15:58 37.01743 -7.96777 23 ft 4 kts 190°
2026-04-28 15:59 37.01770 -7.96770 22 ft 4 kts 197°
2026-04-28 15:59 37.01795 -7.96758 21 ft 4 kts 211°
2026-04-28 15:59 37.01813 -7.96738 21 ft 4 kts 257°
2026-04-28 15:59 37.01814 -7.96723 21 ft 1 kts 280°
2026-04-28 16:00 37.01813 -7.96722 20 ft 0 kts 280°
2026-04-28 16:03 37.01816 -7.96743 21 ft 7 kts 280°
2026-04-28 16:03 37.01825 -7.96804 20 ft 6 kts 280°
2026-04-28 16:03 37.01819 -7.96871 20 ft 11 kts 227°
2026-04-28 16:03 37.01736 -7.96897 20 ft 12 kts 190°
2026-04-28 16:04 37.01681 -7.96948 20 ft 10 kts 262°
2026-04-28 16:04 37.01694 -7.97062 20 ft 16 kts 281°
2026-04-28 16:04 37.01715 -7.97204 21 ft 16 kts 280°
2026-04-28 16:04 37.01738 -7.97362 20 ft 20 kts 279°
2026-04-28 16:05 37.01762 -7.97535 20 ft 20 kts 280°
2026-04-28 16:05 37.01786 -7.97695 20 ft 19 kts 281°
2026-04-28 16:05 37.01811 -7.97870 20 ft 20 kts 279°
2026-04-28 16:05 37.01835 -7.98053 20 ft 21 kts 279°
2026-04-28 16:06 37.01860 -7.98226 21 ft 19 kts 280°
2026-04-28 16:06 37.01883 -7.98383 20 ft 17 kts 280°
2026-04-28 16:06 37.01891 -7.98522 20 ft 15 kts 246°
2026-04-28 16:06 37.01810 -7.98574 21 ft 12 kts 189°
2026-04-28 16:07 37.01737 -7.98586 22 ft 8 kts 166°
2026-04-28 16:07 37.01722 -7.98533 23 ft 7 kts 101°
2026-04-28 16:07 37.01599 -7.97662 20 ft 112 kts 100°
2026-04-28 16:08 37.01434 -7.96483 43 ft 157 kts 100°
2026-04-28 16:08 37.01225 -7.95179 656 ft 154 kts 100°
2026-04-28 16:08 37.01025 -7.93853 1330 ft 156 kts 101°
2026-04-28 16:09 37.00590 -7.90874 1956 ft 194 kts 101°
2026-04-28 16:09 37.00328 -7.89104 2205 ft 219 kts 101°
2026-04-28 16:09 37.00036 -7.87133 2587 ft 241 kts 100°
2026-04-28 16:10 36.99456 -7.82873 4061 ft 254 kts 91°
2026-04-28 16:10 36.99846 -7.80713 4800 ft 262 kts 63°
2026-04-28 16:10 37.02148 -7.77027 6201 ft 276 kts 54°
2026-04-28 16:11 37.04644 -7.73206 7521 ft 290 kts 53°
2026-04-28 16:11 37.07872 -7.70113 8872 ft 303 kts 17°
2026-04-28 16:12 37.12077 -7.69474 10189 ft 314 kts
2026-04-28 16:12 37.14341 -7.69289 10376 ft 337 kts
2026-04-28 16:13 37.19204 -7.68903 11337 ft 358 kts